Location: Anderten
(52.3622°N, 9.8551°E)
Time: 00:51:02
(UTC+00:00)

Daily predictions for brighter satellites

Satellite Brightness Start Highest point End
(mag) Time Altitude Azimuth Time Altitude Azimuth Time Altitude Azimuth
SL-16 R/B 3.8 00:24:55 35° NE 00:24:55 35° NE 00:29:39 10° N
ADEOS II 4.5 00:23:42 10° NE 00:25:43 17° ENE 00:25:43 17° ENE
Cosmos 2360 Rocket 4.4 00:22:00 10° NNW 00:23:33 18° NNW 00:23:33 18° NNW
ATLAS CENTAUR R/B 4.5 00:30:37 37° E 00:30:37 37° E 00:37:47 10° ENE
CZ-2D R/B 4.2 00:27:46 10° NNE 00:30:15 23° NE 00:30:15 23° NE
Cosmos 2082 Rocket 3.8 00:50:59 31° NNE 00:50:59 31° NNE 00:53:59 10° NNE
Lacrosse 4 Rocket 4.4 00:57:02 14° NNE 00:57:02 14° NNE 00:57:42 10° NNE
Cosmos 2333 Rocket 4.4 00:53:24 10° NNW 00:54:48 18° NNW 00:54:48 18° NNW
ATLAS 5 CENTAUR R/B 4.3 01:05:49 15° NNE 01:05:49 15° NNE 01:06:51 10° NE
COSMOS 2428 4.3 00:58:09 10° NNW 01:03:11 31° NE 01:08:12 10° ESE
Cosmos 2219 Rocket 4.0 01:06:50 10° NNW 01:09:04 23° NNW 01:09:04 23° NNW
USA 215 3.5 01:10:18 10° E 01:16:11 65° NE 01:16:11 65° NE
ATLAS 3B R/B 4.4 01:10:01 10° NW 01:27:31 - SE 01:12:35 24° NW
ATLAS 2AS CENTAUR R/B 2.9 01:22:05 70° ENE 01:22:05 70° ENE 01:28:30 10° NE
USA 229 DEB 4.2 01:33:19 10° NW 01:40:26 62° NE 01:48:13 10° ESE
USA 229 4.2 01:33:24 10° NW 01:40:31 62° NE 01:48:17 10° ESE
Resurs 1-4 Rocket 3.1 01:40:13 10° NNE 01:43:37 41° N 01:43:37 41° N
S3M 4.2 01:40:50 10° N 01:46:23 69° N 01:46:23 69° N
Cosmos 489 Rocket 4.5 01:53:08 79° ENE 01:53:08 79° ENE 01:59:13 10° NNE
NPP 4.5 01:51:05 10° N 01:54:48 43° N 01:54:48 43° N
NOSS 3-1 (A) 3.8 01:55:41 66° WNW 01:56:49 79° SW 02:05:30 10° SE
ATLAS CENTAUR R/B 3.9 01:59:18 15° NNE 01:59:18 15° NNE 02:01:18 10° NE
USA 281 3.2 01:59:48 10° NNE 02:06:24 75° ESE 02:07:16 66° S
SL-16 R/B 3.5 02:10:00 34° NW 02:10:00 34° NW 02:13:33 10° NNW
ADEOS II 2.5 02:02:27 10° NNE 02:06:36 55° N 02:06:36 55° N
Cosmos 2266 Rocket 3.9 02:09:14 78° S 02:09:42 87° E 02:16:10 10° N
Cosmos 2315 Rocket 4.0 02:05:28 10° N 02:11:53 86° E 02:13:09 61° SSE
CZ-2D R/B 2.9 02:07:37 10° N 02:11:32 41° NNW 02:11:32 41° NNW
CZ-2C R/B 3.5 02:19:07 38° NNW 02:19:07 38° NNW 02:22:25 10° NNW
MSX 4.1 02:12:17 10° N 02:17:13 54° NW 02:17:13 54° NW
IDEFIX/ARIANE 42P 3.5 02:16:11 10° N 02:19:53 37° NNW 02:19:53 37° NNW
Cosmos 292 Rocket 4.1 02:23:49 60° NNE 02:23:49 60° NNE 02:27:46 10° NNE
Cosmos 2237 Rocket 3.3 02:19:27 10° NNW 02:24:54 43° NE 02:30:18 10° ESE
Cosmos 2221 3.8 02:26:56 34° N 02:26:56 34° N 02:29:31 10° N
Cosmos 1125 Rocket 4.2 02:25:57 41° SE 02:27:04 48° ESE 02:32:04 10° NE
Cosmos 1536 4.3 02:25:49 10° N 02:29:24 34° ENE 02:32:05 15° SE
CZ-4 R/B 3.9 02:25:20 10° NNE 02:29:31 70° N 02:29:31 70° N
Lacrosse 5 rocket 2.3 02:31:30 42° E 02:31:30 42° E 02:34:17 10° ENE
Lacrosse 4 Rocket 3.7 02:33:06 17° NNW 02:33:06 17° NNW 02:35:39 10° NNE
Cosmos 2082 Rocket 3.9 02:32:50 20° NW 02:33:29 21° NNW 02:37:43 10° NNE
SL-16 R/B 4.3 02:29:16 10° NNW 02:33:54 25° NE 02:38:32 10° E
ATLAS CENTAUR R/B 3.7 02:34:10 48° W 02:36:40 76° NNW 02:50:02 10° ENE
Cosmos 1500 Rocket 3.6 02:34:52 10° N 02:39:12 73° ENE 02:39:12 73° ENE
FENGYUN 3A 3.6 02:39:16 10° N 02:44:36 65° WNW 02:44:55 64° W
YAOGAN 11 4.5 02:41:00 10° SSE 02:45:27 65° ENE 02:49:51 10° N
NOSS 0 Rocket 3.9 02:40:18 10° NNW 02:46:37 85° NE 02:52:53 10° SSE
Cosmos 1378 3.9 02:47:37 48° NE 02:47:37 48° NE 02:50:28 10° NNE
COSMOS 2428 2.6 02:42:16 10° NW 02:47:56 70° WSW 02:53:36 10° SSE
ATLAS 5 CENTAUR R/B 3.6 02:46:57 17° NNW 02:48:31 20° N 02:52:04 10° NE
SL-27 R/B 4.2 02:50:53 25° NNE 02:50:53 25° NNE 02:52:23 10° NNE
Timation 1 Rocket 4.3 02:49:01 57° WSW 02:50:09 71° NW 02:56:10 10° NNE
CZ-2C R/B 2.7 02:49:54 10° NNE 02:54:39 62° ESE 02:56:49 30° S
ALOS 2.2 02:51:40 10° N 02:56:17 64° WNW 02:56:20 64° WNW
Cosmos 1151 Rocket 4.5 02:55:15 10° SSE 02:59:16 37° E 03:03:19 10° NNE
USA 215 3.2 02:53:23 10° SE 02:59:55 67° SW 03:03:31 28° WNW
Cosmos 2298 Rocket 4.2 03:05:10 29° S 03:07:55 71° ESE 03:13:13 10° NNE
Cosmos 1842 Rocket 4.0 03:09:34 45° WNW 03:09:34 45° WNW 03:13:37 10° N
Cosmos 2084 Rocket 3.8 03:11:36 42° NW 03:11:45 42° NNW 03:15:29 10° NE
Meteor 1-27 Rocket 4.5 03:07:16 10° S 03:12:45 54° E 03:18:21 10° NNE
ATLAS 2AS CENTAUR R/B 3.4 03:09:31 29° WNW 03:12:48 45° NNW 03:19:35 10° NE
Cosmos 1655 Rocket 4.3 03:13:15 37° WSW 03:15:05 46° WNW 03:21:14 10° N
DMSP B5D2-2 4.4 03:11:17 10° SSE 03:16:31 70° ENE 03:21:47 10° N
CZ-2C R/B 3.3 03:11:59 10° N 03:17:39 59° WNW 03:19:54 35° SW
Cosmos 2150 Rocket 4.0 03:16:29 26° SSW 03:19:31 84° ESE 03:24:47 10° NNE
Thor Agena Rocket 3.9 03:15:08 10° N 03:20:09 45° WNW 03:21:27 38° WSW
Cosmos 1269 Rocket 4.2 03:16:27 10° NNW 03:21:47 73° ENE 03:27:02 10° SSE
Resurs 1-4 Rocket 3.8 03:21:18 10° NNW 03:24:28 16° NW 03:24:40 16° NW
Helios 1A 3.5 03:21:21 10° SSE 03:25:22 58° ENE 03:29:24 10° N
Cosmos 1743 Rocket 3.7 03:22:07 10° NNW 03:26:19 49° W 03:27:40 36° SW
Meteor 1-11 Rocket 3.8 03:21:35 10° NNW 03:27:26 67° W 03:33:21 10° S
Cosmos 614 Rocket 3.9 03:22:34 10° NNW 03:27:44 88° WSW 03:32:55 10° SSE
Cosmos 1805 Rocket 3.7 03:24:31 10° NNW 03:28:43 49° W 03:30:45 27° SSW
Cosmos 1980 3.6 03:25:24 10° NNW 03:31:04 75° WSW 03:36:42 10° SSE
USA 229 DEB 4.1 03:24:23 10° NW 03:31:27 50° WSW 03:39:03 10° SSE
USA 229 4.1 03:24:28 10° NW 03:31:33 51° WSW 03:39:08 10° SSE
Cosmos 1633 Rocket 3.5 03:30:35 10° N 03:34:58 65° ENE 03:39:21 10° SSE
Cosmos 1745 Rocket 4.3 03:31:12 10° S 03:37:30 72° E 03:43:51 10° NNE
Sich 1 3.3 03:33:24 10° NNW 03:37:31 44° W 03:41:10 13° SSW
ATLAS CENTAUR R/B 2.1 03:34:46 11° NW 03:38:07 42° NE 03:41:33 10° ESE
Cosmos 1484 Rocket 3.1 03:36:11 10° NNE 03:39:48 61° ESE 03:43:24 10° S
Meteor 2-9 Rocket 4.2 03:34:03 10° NNW 03:39:57 81° W 03:45:42 10° S
NOAA 11 4.2 03:34:44 10° NNE 03:40:17 89° ESE 03:45:46 10° SSW
Meteor 2-6 Rocket 4.5 03:38:04 28° WSW 03:40:26 43° WNW 03:45:37 10° N
H-2A R/B 4.0 03:36:14 10° NNE 03:41:06 32° E 03:45:54 10° SSE
GP-B 3.2 03:38:17 18° SSW 03:41:24 51° W 03:45:44 10° N
YAOGAN 6 2.6 03:41:11 10° N 03:44:30 51° WNW 03:45:35 35° SW
ADEOS II 3.7 03:43:20 10° NNW 03:46:35 17° NW 03:47:29 16° WNW
BlueWalker 3 4.0 03:48:24 14° SSW 03:48:24 14° SSW 03:49:27 10° S
Meteor 1-10 Rocket 4.2 03:44:45 14° SSW 03:49:30 58° WNW 03:55:00 10° N
USA 281 4.0 03:44:43 10° NNE 03:50:29 34° NW 03:54:08 20° W
IRS-1D 4.0 03:45:49 10° N 03:50:50 43° WNW 03:54:06 20° SW
CZ-2D R/B 4.1 03:49:41 10° NNW 03:51:39 12° NW 03:52:50 11° WNW
Envisat 3.1 03:48:13 10° N 03:53:11 55° WNW 03:57:47 12° SW
SKYMED 2 4.4 03:56:41 10° SSE 04:00:55 54° ENE 04:05:11 10° N
Cosmos 2297 Rocket 2.3 03:56:37 10° SSW 04:02:15 78° ESE 04:07:55 10° NNE
Cosmos 1939 Rocket 4.3 03:58:56 10° NNE 04:02:36 39° E 04:06:17 10° SSE
Cosmos 1536 3.8 04:02:14 10° NW 04:05:25 24° W 04:07:16 17° SW
Cosmos 2237 Rocket 2.5 04:03:39 10° NW 04:09:01 44° WSW 04:14:20 10° S
Lacrosse 5 rocket 1.7 04:06:40 20° W 04:09:10 49° NNW 04:12:54 10° ENE
Cosmos 1125 Rocket 4.3 04:06:14 19° WSW 04:09:19 34° NW 04:14:03 10° NNE
Cosmos 1470 Rocket 3.6 04:07:17 10° NNW 04:11:48 88° WSW 04:16:17 10° S
Lacrosse 4 Rocket 4.1 04:12:16 10° N 04:13:02 10° N 04:13:48 10° N
Meteor 2-10 3.9 04:08:57 10° NNW 04:14:16 73° W 04:19:22 10° S
Cosmos 2181 Rocket 4.3 04:08:37 10° N 04:14:49 70° ENE 04:20:56 10° SSE
SL-16 R/B 2.3 04:13:06 10° NNW 04:18:52 85° ENE 04:24:34 10° SSE
Okean 1 3.6 04:17:11 10° SW 04:20:50 42° WNW 04:24:33 10° N
Cosmos 1726 2.0 04:18:21 10° NNW 04:21:42 50° W 04:25:01 10° S
H-2A R/B 2.4 04:18:32 10° N 04:22:02 73° WNW 04:25:30 10° SSW
SL-08 R/B 3.4 04:18:40 10° SSE 04:23:29 86° ENE 04:28:26 10° NNW
ERS-2 2.3 04:20:20 10° NNE 04:23:29 61° ESE 04:26:36 10° S
Cosmos 1975 2.7 04:20:15 10° NNW 04:24:12 71° W 04:28:08 10° S
COBE Rocket 4.5 04:21:12 10° N 04:25:37 37° WNW 04:30:07 10° SW
IRS-1C 4.1 04:23:56 10° NNE 04:29:17 79° WNW 04:34:37 10° SSW
Nadezhda 1 Rocket 4.4 04:24:36 10° NNW 04:30:21 38° W 04:35:58 10° SSW
COSMOS 2428 4.2 04:28:31 10° WNW 04:31:09 13° W 04:33:48 10° SW
Cosmos 2344 4.0 04:24:44 10° SSW 04:32:03 61° SE 04:39:28 10° NE
CZ-2C R/B 3.5 04:28:43 10° N 04:32:26 23° WNW 04:36:03 10° WSW
ALOS 4.2 04:30:50 10° NNW 04:32:42 12° NW 04:34:35 10° WNW
ATLAS 5 CENTAUR R/B 3.3 04:29:48 10° NW 04:33:55 33° NNE 04:38:50 10° E
Cosmos 1151 Rocket 3.9 04:33:03 10° SW 04:36:52 29° WNW 04:40:42 10° N
Cosmos 1766 4.3 04:33:23 10° N 04:37:04 49° ENE 04:40:43 10° SSE
Cosmos 407 Rocket 3.7 04:35:19 10° NNW 04:40:43 81° ENE 04:46:04 10° SSE
Cosmos 1733 3.5 04:37:50 10° NNW 04:41:19 39° W 04:44:45 10° SSW
USA 215 4.3 04:38:38 10° S 04:43:46 24° SW 04:48:56 10° WNW
ARIANE 5 R/B 2.5 04:39:41 10° N 04:44:41 64° WNW 04:49:36 10° SSW
Cosmos 1515 Rocket 3.5 04:40:25 10° SSW 04:44:49 82° W 04:49:13 10° N
Helios 1B rocket 3.6 04:42:22 10° NNE 04:46:15 46° E 04:50:05 10° S
Cosmos 1328 Rocket 4.0 04:43:42 10° SW 04:47:53 41° WNW 04:52:03 10° N
COSMO-SKYMED 1 2.7 04:44:44 10° S 04:49:00 55° W 04:53:17 10° NNW
Cosmos 2227 Rocket 2.2 04:43:23 10° SSW 04:49:04 84° WNW 04:54:49 10° NNE
Cosmos 1933 Rocket 3.5 04:45:45 10° NNW 04:50:03 66° W 04:54:21 10° S
Cosmos 44 Rocket 3.6 04:45:15 10° WSW 04:50:18 61° NW 04:55:29 10° NE
Genesis I 3.2 04:48:22 10° NW 04:52:00 53° SW 04:55:36 10° SSE
Cosmos 2263 Rocket 3.7 04:46:54 10° S 04:52:07 41° ESE 04:57:21 10° NE
CZ-2D R/B 3.6 04:50:48 10° N 04:55:06 63° WNW 04:59:24 10° SSW
